owner,sensor,date,latitude,longitude,relative_humidity,qcFlag 
COMPS,ioos:station:USF.COMPS:ARP:1,2015-10-01T00:00:00Z,28.4330,-82.6670,80.95,1111122 
COMPS,ioos:station:USF.COMPS:ARP:1,2015-10-01T00:06:00Z,28.4330,-82.6670,80.8,1111122 
COMPS,ioos:station:USF.COMPS:ARP:1,2015-10-01T00:12:00Z,28.4330,-82.6670,80.6,1111122 
COMPS,ioos:station:USF.COMPS:ARP:1,2015-10-01T00:18:00Z,28.4330,-82.6670,80.33,1111122 
COMPS,ioos:station:USF.COMPS:ARP:1,2015-10-01T00:24:00Z,28.4330,-82.6670,80.83,1111122 
COMPS,ioos:station:USF.COMPS:ARP:1,2015-10-01T00:30:00Z,28.4330,-82.6670,80.48,1111122 
COMPS,ioos:station:USF.COMPS:ARP:1,2015-10-01T00:36:00Z,28.4330,-82.6670,80.7,1111122 
COMPS,ioos:station:USF.COMPS:ARP:1,2015-10-01T00:42:00Z,28.4330,-82.6670,80.63,1111122 
COMPS,ioos:station:USF.COMPS:ARP:1,2015-10-01T00:48:00Z,28.4330,-82.6670,80.92,1111122 
COMPS,ioos:station:USF.COMPS:ARP:1,2015-10-01T00:54:00Z,28.4330,-82.6670,80.81,1111122 
COMPS,ioos:station:USF.COMPS:ARP:1,2015-10-01T01:00:00Z,28.4330,-82.6670,82.21,1111122 
COMPS,ioos:station:USF.COMPS:ARP:1,2015-10-01T01:06:00Z,28.4330,-82.6670,81.6,1111122 
COMPS,ioos:station:USF.COMPS:ARP:1,2015-10-01T01:12:00Z,28.4330,-82.6670,81.18,1111122 
COMPS,ioos:station:USF.COMPS:ARP:1,2015-10-01T01:18:00Z,28.4330,-82.6670,80.98,1111122 
COMPS,ioos:station:USF.COMPS:ARP:1,2015-10-01T01:24:00Z,28.4330,-82.6670,80.61,1111122 
COMPS,ioos:station:USF.COMPS:ARP:1,2015-10-01T01:30:00Z,28.4330,-82.6670,80.84,1111122 
COMPS,ioos:station:USF.COMPS:ARP:1,2015-10-01T01:36:00Z,28.4330,-82.6670,80.82,1111122 
COMPS,ioos:station:USF.COMPS:ARP:1,2015-10-01T01:42:00Z,28.4330,-82.6670,80.21,1111122 
COMPS,ioos:station:USF.COMPS:ARP:1,2015-10-01T01:48:00Z,28.4330,-82.6670,79.95,1111122 
COMPS,ioos:station:USF.COMPS:ARP:1,2015-10-01T01:54:00Z,28.4330,-82.6670,80.59,1111122 
COMPS,ioos:station:USF.COMPS:ARP:1,2015-10-01T02:00:00Z,28.4330,-82.6670,81.32,1111122 
COMPS,ioos:station:USF.COMPS:ARP:1,2015-10-01T02:06:00Z,28.4330,-82.6670,80.63,1111122 
COMPS,ioos:station:USF.COMPS:ARP:1,2015-10-01T02:12:00Z,28.4330,-82.6670,80.9,1111122 
COMPS,ioos:station:USF.COMPS:ARP:1,2015-10-01T02:18:00Z,28.4330,-82.6670,81.37,1111122 
COMPS,ioos:station:USF.COMPS:ARP:1,2015-10-01T02:24:00Z,28.4330,-82.6670,81.56,1111122 
COMPS,ioos:station:USF.COMPS:ARP:1,2015-10-01T02:30:00Z,28.4330,-82.6670,82.71,1111122 
COMPS,ioos:station:USF.COMPS:ARP:1,2015-10-01T02:36:00Z,28.4330,-82.6670,83.72,1111122 
COMPS,ioos:station:USF.COMPS:ARP:1,2015-10-01T02:42:00Z,28.4330,-82.6670,83.05,1111122 
COMPS,ioos:station:USF.COMPS:ARP:1,2015-10-01T02:48:00Z,28.4330,-82.6670,82.99,1111122 
COMPS,ioos:station:USF.COMPS:ARP:1,2015-10-01T02:54:00Z,28.4330,-82.6670,81.35,1111122 
COMPS,ioos:station:USF.COMPS:ARP:1,2015-10-01T03:00:00Z,28.4330,-82.6670,81.98,1111122 
COMPS,ioos:station:USF.COMPS:ARP:1,2015-10-01T03:06:00Z,28.4330,-82.6670,80.39,1111122 
COMPS,ioos:station:USF.COMPS:ARP:1,2015-10-01T03:12:00Z,28.4330,-82.6670,80.53,1111122 
COMPS,ioos:station:USF.COMPS:ARP:1,2015-10-01T03:18:00Z,28.4330,-82.6670,81.03,1111122 
COMPS,ioos:station:USF.COMPS:ARP:1,2015-10-01T03:24:00Z,28.4330,-82.6670,81.0,1111122 
COMPS,ioos:station:USF.COMPS:ARP:1,2015-10-01T03:30:00Z,28.4330,-82.6670,80.31,1111122 
COMPS,ioos:station:USF.COMPS:ARP:1,2015-10-01T03:36:00Z,28.4330,-82.6670,79.48,1111122 
COMPS,ioos:station:USF.COMPS:ARP:1,2015-10-01T03:42:00Z,28.4330,-82.6670,80.54,1111122 
COMPS,ioos:station:USF.COMPS:ARP:1,2015-10-01T03:48:00Z,28.4330,-82.6670,81.42,1111122 
COMPS,ioos:station:USF.COMPS:ARP:1,2015-10-01T03:54:00Z,28.4330,-82.6670,80.05,1111122 
COMPS,ioos:station:USF.COMPS:ARP:1,2015-10-01T04:00:00Z,28.4330,-82.6670,79.96,1111122 
COMPS,ioos:station:USF.COMPS:ARP:1,2015-10-01T04:06:00Z,28.4330,-82.6670,80.24,1111122 
COMPS,ioos:station:USF.COMPS:ARP:1,2015-10-01T04:12:00Z,28.4330,-82.6670,80.92,1111122 
COMPS,ioos:station:USF.COMPS:ARP:1,2015-10-01T04:18:00Z,28.4330,-82.6670,81.21,1111122 
COMPS,ioos:station:USF.COMPS:ARP:1,2015-10-01T04:24:00Z,28.4330,-82.6670,81.42,1111122 
COMPS,ioos:station:USF.COMPS:ARP:1,2015-10-01T04:30:00Z,28.4330,-82.6670,79.99,1111122 
COMPS,ioos:station:USF.COMPS:ARP:1,2015-10-01T04:36:00Z,28.4330,-82.6670,78.33,1111122 
COMPS,ioos:station:USF.COMPS:ARP:1,2015-10-01T04:42:00Z,28.4330,-82.6670,78.89,1111122 
COMPS,ioos:station:USF.COMPS:ARP:1,2015-10-01T04:48:00Z,28.4330,-82.6670,79.21,1111122 
COMPS,ioos:station:USF.COMPS:ARP:1,2015-10-01T04:54:00Z,28.4330,-82.6670,80.1,1111122 
COMPS,ioos:station:USF.COMPS:ARP:1,2015-10-01T05:00:00Z,28.4330,-82.6670,80.27,1111122 
COMPS,ioos:station:USF.COMPS:ARP:1,2015-10-01T05:06:00Z,28.4330,-82.6670,80.43,1111122 
COMPS,ioos:station:USF.COMPS:ARP:1,2015-10-01T05:12:00Z,28.4330,-82.6670,80.02,1111122 
COMPS,ioos:station:USF.COMPS:ARP:1,2015-10-01T05:18:00Z,28.4330,-82.6670,80.4,1111122 
COMPS,ioos:station:USF.COMPS:ARP:1,2015-10-01T05:24:00Z,28.4330,-82.6670,80.51,1111122 
COMPS,ioos:station:USF.COMPS:ARP:1,2015-10-01T05:30:00Z,28.4330,-82.6670,81.58,1111122 
COMPS,ioos:station:USF.COMPS:ARP:1,2015-10-01T05:36:00Z,28.4330,-82.6670,81.61,1111122 
COMPS,ioos:station:USF.COMPS:ARP:1,2015-10-01T05:42:00Z,28.4330,-82.6670,80.46,1111122 
COMPS,ioos:station:USF.COMPS:ARP:1,2015-10-01T05:48:00Z,28.4330,-82.6670,80.16,1111122 
COMPS,ioos:station:USF.COMPS:ARP:1,2015-10-01T05:54:00Z,28.4330,-82.6670,82.42,1111122 
COMPS,ioos:station:USF.COMPS:ARP:1,2015-10-01T06:00:00Z,28.4330,-82.6670,82.04,1111122 
COMPS,ioos:station:USF.COMPS:ARP:1,2015-10-01T06:06:00Z,28.4330,-82.6670,81.36,1111122 
COMPS,ioos:station:USF.COMPS:ARP:1,2015-10-01T06:12:00Z,28.4330,-82.6670,81.39,1111122 
COMPS,ioos:station:USF.COMPS:ARP:1,2015-10-01T06:18:00Z,28.4330,-82.6670,80.7,1111122 
COMPS,ioos:station:USF.COMPS:ARP:1,2015-10-01T06:24:00Z,28.4330,-82.6670,81.37,1111122 
COMPS,ioos:station:USF.COMPS:ARP:1,2015-10-01T06:30:00Z,28.4330,-82.6670,81.42,1111122 
COMPS,ioos:station:USF.COMPS:ARP:1,2015-10-01T06:36:00Z,28.4330,-82.6670,80.57,1111122 
COMPS,ioos:station:USF.COMPS:ARP:1,2015-10-01T06:42:00Z,28.4330,-82.6670,81.46,1111122 
COMPS,ioos:station:USF.COMPS:ARP:1,2015-10-01T06:48:00Z,28.4330,-82.6670,82.09,1111122 
COMPS,ioos:station:USF.COMPS:ARP:1,2015-10-01T06:54:00Z,28.4330,-82.6670,80.74,1111122 
COMPS,ioos:station:USF.COMPS:ARP:1,2015-10-01T07:00:00Z,28.4330,-82.6670,80.69,1111122 
COMPS,ioos:station:USF.COMPS:ARP:1,2015-10-01T07:06:00Z,28.4330,-82.6670,80.6,1111122 
COMPS,ioos:station:USF.COMPS:ARP:1,2015-10-01T07:12:00Z,28.4330,-82.6670,80.26,1111122 
COMPS,ioos:station:USF.COMPS:ARP:1,2015-10-01T07:18:00Z,28.4330,-82.6670,81.23,1111122 
COMPS,ioos:station:USF.COMPS:ARP:1,2015-10-01T07:24:00Z,28.4330,-82.6670,80.4,1111122 
COMPS,ioos:station:USF.COMPS:ARP:1,2015-10-01T07:30:00Z,28.4330,-82.6670,81.04,1111122 
COMPS,ioos:station:USF.COMPS:ARP:1,2015-10-01T07:36:00Z,28.4330,-82.6670,82.68,1111122 
COMPS,ioos:station:USF.COMPS:ARP:1,2015-10-01T07:42:00Z,28.4330,-82.6670,83.27,1111122 
COMPS,ioos:station:USF.COMPS:ARP:1,2015-10-01T07:48:00Z,28.4330,-82.6670,84.17,1111122 
COMPS,ioos:station:USF.COMPS:ARP:1,2015-10-01T07:54:00Z,28.4330,-82.6670,84.04,1111122 
COMPS,ioos:station:USF.COMPS:ARP:1,2015-10-01T08:00:00Z,28.4330,-82.6670,83.87,1111122 
COMPS,ioos:station:USF.COMPS:ARP:1,2015-10-01T08:06:00Z,28.4330,-82.6670,82.05,1111122 
COMPS,ioos:station:USF.COMPS:ARP:1,2015-10-01T08:12:00Z,28.4330,-82.6670,82.19,1111122 
COMPS,ioos:station:USF.COMPS:ARP:1,2015-10-01T08:18:00Z,28.4330,-82.6670,83.66,1111122 
COMPS,ioos:station:USF.COMPS:ARP:1,2015-10-01T08:24:00Z,28.4330,-82.6670,82.9,1111122 
COMPS,ioos:station:USF.COMPS:ARP:1,2015-10-01T08:30:00Z,28.4330,-82.6670,82.53,1111122 
COMPS,ioos:station:USF.COMPS:ARP:1,2015-10-01T08:36:00Z,28.4330,-82.6670,82.55,1111122 
COMPS,ioos:station:USF.COMPS:ARP:1,2015-10-01T08:42:00Z,28.4330,-82.6670,82.7,1111122 
COMPS,ioos:station:USF.COMPS:ARP:1,2015-10-01T08:48:00Z,28.4330,-82.6670,83.52,1111122 
COMPS,ioos:station:USF.COMPS:ARP:1,2015-10-01T08:54:00Z,28.4330,-82.6670,83.91,1111122 
COMPS,ioos:station:USF.COMPS:ARP:1,2015-10-01T09:00:00Z,28.4330,-82.6670,83.38,1111122 
COMPS,ioos:station:USF.COMPS:ARP:1,2015-10-01T09:06:00Z,28.4330,-82.6670,82.94,1111122 
COMPS,ioos:station:USF.COMPS:ARP:1,2015-10-01T09:12:00Z,28.4330,-82.6670,82.22,1111122 
COMPS,ioos:station:USF.COMPS:ARP:1,2015-10-01T09:18:00Z,28.4330,-82.6670,81.51,1111122 
COMPS,ioos:station:USF.COMPS:ARP:1,2015-10-01T09:24:00Z,28.4330,-82.6670,82.28,1111122 
COMPS,ioos:station:USF.COMPS:ARP:1,2015-10-01T09:30:00Z,28.4330,-82.6670,82.96,1111122 
COMPS,ioos:station:USF.COMPS:ARP:1,2015-10-01T09:36:00Z,28.4330,-82.6670,83.25,1111122 
COMPS,ioos:station:USF.COMPS:ARP:1,2015-10-01T09:42:00Z,28.4330,-82.6670,82.53,1111122 
COMPS,ioos:station:USF.COMPS:ARP:1,2015-10-01T09:48:00Z,28.4330,-82.6670,82.79,1111122 
COMPS,ioos:station:USF.COMPS:ARP:1,2015-10-01T09:54:00Z,28.4330,-82.6670,82.88,1111122 
COMPS,ioos:station:USF.COMPS:ARP:1,2015-10-01T10:00:00Z,28.4330,-82.6670,83.19,1111122 
COMPS,ioos:station:USF.COMPS:ARP:1,2015-10-01T10:06:00Z,28.4330,-82.6670,83.92,1111122 
COMPS,ioos:station:USF.COMPS:ARP:1,2015-10-01T10:12:00Z,28.4330,-82.6670,83.86,1111122 
COMPS,ioos:station:USF.COMPS:ARP:1,2015-10-01T10:18:00Z,28.4330,-82.6670,84.0,1111122 
COMPS,ioos:station:USF.COMPS:ARP:1,2015-10-01T10:24:00Z,28.4330,-82.6670,84.16,1111122 
COMPS,ioos:station:USF.COMPS:ARP:1,2015-10-01T10:30:00Z,28.4330,-82.6670,83.84,1111122 
COMPS,ioos:station:USF.COMPS:ARP:1,2015-10-01T10:36:00Z,28.4330,-82.6670,84.61,1111122 
COMPS,ioos:station:USF.COMPS:ARP:1,2015-10-01T10:42:00Z,28.4330,-82.6670,85.22,1111122 
COMPS,ioos:station:USF.COMPS:ARP:1,2015-10-01T10:48:00Z,28.4330,-82.6670,85.56,1111122 
COMPS,ioos:station:USF.COMPS:ARP:1,2015-10-01T10:54:00Z,28.4330,-82.6670,85.64,1111122 
COMPS,ioos:station:USF.COMPS:ARP:1,2015-10-01T11:00:00Z,28.4330,-82.6670,85.79,1111122 
COMPS,ioos:station:USF.COMPS:ARP:1,2015-10-01T11:06:00Z,28.4330,-82.6670,85.58,1111122 
COMPS,ioos:station:USF.COMPS:ARP:1,2015-10-01T11:12:00Z,28.4330,-82.6670,85.45,1111122 
COMPS,ioos:station:USF.COMPS:ARP:1,2015-10-01T11:18:00Z,28.4330,-82.6670,85.89,1111122 
COMPS,ioos:station:USF.COMPS:ARP:1,2015-10-01T11:24:00Z,28.4330,-82.6670,87.06,1111122 
COMPS,ioos:station:USF.COMPS:ARP:1,2015-10-01T11:30:00Z,28.4330,-82.6670,88.67,1111122 
COMPS,ioos:station:USF.COMPS:ARP:1,2015-10-01T11:36:00Z,28.4330,-82.6670,89.9,1111122 
COMPS,ioos:station:USF.COMPS:ARP:1,2015-10-01T11:42:00Z,28.4330,-82.6670,90.57,1111122 
COMPS,ioos:station:USF.COMPS:ARP:1,2015-10-01T11:48:00Z,28.4330,-82.6670,90.96,1111122 
COMPS,ioos:station:USF.COMPS:ARP:1,2015-10-01T11:54:00Z,28.4330,-82.6670,91.05,1111122 
COMPS,ioos:station:USF.COMPS:ARP:1,2015-10-01T12:00:00Z,28.4330,-82.6670,90.91,1111122 
COMPS,ioos:station:USF.COMPS:ARP:1,2015-10-01T12:06:00Z,28.4330,-82.6670,90.93,1111122 
COMPS,ioos:station:USF.COMPS:ARP:1,2015-10-01T12:12:00Z,28.4330,-82.6670,91.14,1111122 
COMPS,ioos:station:USF.COMPS:ARP:1,2015-10-01T12:18:00Z,28.4330,-82.6670,91.23,1111122 
COMPS,ioos:station:USF.COMPS:ARP:1,2015-10-01T12:24:00Z,28.4330,-82.6670,91.62,1111122 
COMPS,ioos:station:USF.COMPS:ARP:1,2015-10-01T12:30:00Z,28.4330,-82.6670,91.89,1111122 
COMPS,ioos:station:USF.COMPS:ARP:1,2015-10-01T12:36:00Z,28.4330,-82.6670,91.95,1111122 
COMPS,ioos:station:USF.COMPS:ARP:1,2015-10-01T12:42:00Z,28.4330,-82.6670,91.83,1111122 
COMPS,ioos:station:USF.COMPS:ARP:1,2015-10-01T12:48:00Z,28.4330,-82.6670,90.41,1111122 
COMPS,ioos:station:USF.COMPS:ARP:1,2015-10-01T12:54:00Z,28.4330,-82.6670,88.49,1111122 
COMPS,ioos:station:USF.COMPS:ARP:1,2015-10-01T13:00:00Z,28.4330,-82.6670,87.24,1111122 
COMPS,ioos:station:USF.COMPS:ARP:1,2015-10-01T13:06:00Z,28.4330,-82.6670,85.56,1111122 
COMPS,ioos:station:USF.COMPS:ARP:1,2015-10-01T13:12:00Z,28.4330,-82.6670,85.21,1111122 
COMPS,ioos:station:USF.COMPS:ARP:1,2015-10-01T13:18:00Z,28.4330,-82.6670,84.46,1111122 
COMPS,ioos:station:USF.COMPS:ARP:1,2015-10-01T13:24:00Z,28.4330,-82.6670,83.05,1111122 
COMPS,ioos:station:USF.COMPS:ARP:1,2015-10-01T13:30:00Z,28.4330,-82.6670,84.39,1111122 
COMPS,ioos:station:USF.COMPS:ARP:1,2015-10-01T13:36:00Z,28.4330,-82.6670,85.48,1111122 
COMPS,ioos:station:USF.COMPS:ARP:1,2015-10-01T13:42:00Z,28.4330,-82.6670,85.26,1111122 
COMPS,ioos:station:USF.COMPS:ARP:1,2015-10-01T13:48:00Z,28.4330,-82.6670,85.54,1111122 
COMPS,ioos:station:USF.COMPS:ARP:1,2015-10-01T13:54:00Z,28.4330,-82.6670,84.88,1111122 
COMPS,ioos:station:USF.COMPS:ARP:1,2015-10-01T14:00:00Z,28.4330,-82.6670,82.7,1111122 
COMPS,ioos:station:USF.COMPS:ARP:1,2015-10-01T14:06:00Z,28.4330,-82.6670,82.64,1111122 
COMPS,ioos:station:USF.COMPS:ARP:1,2015-10-01T14:12:00Z,28.4330,-82.6670,81.29,1111122 
COMPS,ioos:station:USF.COMPS:ARP:1,2015-10-01T14:18:00Z,28.4330,-82.6670,80.21,1111122 
COMPS,ioos:station:USF.COMPS:ARP:1,2015-10-01T14:24:00Z,28.4330,-82.6670,81.93,1111122 
COMPS,ioos:station:USF.COMPS:ARP:1,2015-10-01T14:30:00Z,28.4330,-82.6670,82.73,1111122 
COMPS,ioos:station:USF.COMPS:ARP:1,2015-10-01T14:36:00Z,28.4330,-82.6670,83.65,1111122 
COMPS,ioos:station:USF.COMPS:ARP:1,2015-10-01T14:42:00Z,28.4330,-82.6670,83.36,1111122 
COMPS,ioos:station:USF.COMPS:ARP:1,2015-10-01T14:48:00Z,28.4330,-82.6670,83.95,1111122 
COMPS,ioos:station:USF.COMPS:ARP:1,2015-10-01T14:54:00Z,28.4330,-82.6670,83.84,1111122 
COMPS,ioos:station:USF.COMPS:ARP:1,2015-10-01T15:00:00Z,28.4330,-82.6670,83.43,1111122 
COMPS,ioos:station:USF.COMPS:ARP:1,2015-10-01T15:06:00Z,28.4330,-82.6670,83.68,1111122 
COMPS,ioos:station:USF.COMPS:ARP:1,2015-10-01T15:12:00Z,28.4330,-82.6670,83.52,1111122 
COMPS,ioos:station:USF.COMPS:ARP:1,2015-10-01T15:18:00Z,28.4330,-82.6670,83.27,1111122 
COMPS,ioos:station:USF.COMPS:ARP:1,2015-10-01T15:24:00Z,28.4330,-82.6670,84.66,1111122 
COMPS,ioos:station:USF.COMPS:ARP:1,2015-10-01T15:30:00Z,28.4330,-82.6670,84.63,1111122 
COMPS,ioos:station:USF.COMPS:ARP:1,2015-10-01T15:36:00Z,28.4330,-82.6670,84.65,1111122 
COMPS,ioos:station:USF.COMPS:ARP:1,2015-10-01T15:42:00Z,28.4330,-82.6670,84.93,1111122 
COMPS,ioos:station:USF.COMPS:ARP:1,2015-10-01T15:48:00Z,28.4330,-82.6670,85.19,1111122 
COMPS,ioos:station:USF.COMPS:ARP:1,2015-10-01T15:54:00Z,28.4330,-82.6670,85.96,1111122 
COMPS,ioos:station:USF.COMPS:ARP:1,2015-10-01T16:00:00Z,28.4330,-82.6670,86.71,1111122 
COMPS,ioos:station:USF.COMPS:ARP:1,2015-10-01T16:06:00Z,28.4330,-82.6670,86.73,1111122 
COMPS,ioos:station:USF.COMPS:ARP:1,2015-10-01T16:12:00Z,28.4330,-82.6670,86.21,1111122 
COMPS,ioos:station:USF.COMPS:ARP:1,2015-10-01T16:18:00Z,28.4330,-82.6670,85.42,1111122 
COMPS,ioos:station:USF.COMPS:ARP:1,2015-10-01T16:24:00Z,28.4330,-82.6670,84.95,1111122 
COMPS,ioos:station:USF.COMPS:ARP:1,2015-10-01T16:30:00Z,28.4330,-82.6670,84.98,1111122 
COMPS,ioos:station:USF.COMPS:ARP:1,2015-10-01T16:36:00Z,28.4330,-82.6670,84.57,1111122 
COMPS,ioos:station:USF.COMPS:ARP:1,2015-10-01T16:42:00Z,28.4330,-82.6670,85.1,1111122 
COMPS,ioos:station:USF.COMPS:ARP:1,2015-10-01T16:48:00Z,28.4330,-82.6670,85.16,1111122 
COMPS,ioos:station:USF.COMPS:ARP:1,2015-10-01T16:54:00Z,28.4330,-82.6670,84.81,1111122 
COMPS,ioos:station:USF.COMPS:ARP:1,2015-10-01T17:00:00Z,28.4330,-82.6670,84.84,1111122 
COMPS,ioos:station:USF.COMPS:ARP:1,2015-10-01T17:06:00Z,28.4330,-82.6670,84.34,1111122 
COMPS,ioos:station:USF.COMPS:ARP:1,2015-10-01T17:12:00Z,28.4330,-82.6670,83.65,1111122 
COMPS,ioos:station:USF.COMPS:ARP:1,2015-10-01T17:18:00Z,28.4330,-82.6670,84.24,1111122 
COMPS,ioos:station:USF.COMPS:ARP:1,2015-10-01T17:24:00Z,28.4330,-82.6670,85.3,1111122 
COMPS,ioos:station:USF.COMPS:ARP:1,2015-10-01T17:30:00Z,28.4330,-82.6670,85.19,1111122 
COMPS,ioos:station:USF.COMPS:ARP:1,2015-10-01T17:36:00Z,28.4330,-82.6670,84.83,1111122 
COMPS,ioos:station:USF.COMPS:ARP:1,2015-10-01T17:42:00Z,28.4330,-82.6670,84.67,1111122 
COMPS,ioos:station:USF.COMPS:ARP:1,2015-10-01T17:48:00Z,28.4330,-82.6670,84.56,1111122 
COMPS,ioos:station:USF.COMPS:ARP:1,2015-10-01T17:54:00Z,28.4330,-82.6670,83.86,1111122 
COMPS,ioos:station:USF.COMPS:ARP:1,2015-10-01T18:00:00Z,28.4330,-82.6670,82.64,1111122 
COMPS,ioos:station:USF.COMPS:ARP:1,2015-10-01T18:06:00Z,28.4330,-82.6670,83.04,1111122 
COMPS,ioos:station:USF.COMPS:ARP:1,2015-10-01T18:12:00Z,28.4330,-82.6670,83.2,1111122 
COMPS,ioos:station:USF.COMPS:ARP:1,2015-10-01T18:18:00Z,28.4330,-82.6670,80.14,1111122 
COMPS,ioos:station:USF.COMPS:ARP:1,2015-10-01T18:24:00Z,28.4330,-82.6670,83.4,1111122 
COMPS,ioos:station:USF.COMPS:ARP:1,2015-10-01T18:30:00Z,28.4330,-82.6670,83.27,1111122 
COMPS,ioos:station:USF.COMPS:ARP:1,2015-10-01T18:36:00Z,28.4330,-82.6670,82.93,1111122 
COMPS,ioos:station:USF.COMPS:ARP:1,2015-10-01T18:42:00Z,28.4330,-82.6670,82.46,1111122 
COMPS,ioos:station:USF.COMPS:ARP:1,2015-10-01T18:48:00Z,28.4330,-82.6670,83.54,1111122 
COMPS,ioos:station:USF.COMPS:ARP:1,2015-10-01T18:54:00Z,28.4330,-82.6670,83.41,1111122 
COMPS,ioos:station:USF.COMPS:ARP:1,2015-10-01T19:00:00Z,28.4330,-82.6670,84.76,1111122 
COMPS,ioos:station:USF.COMPS:ARP:1,2015-10-01T19:06:00Z,28.4330,-82.6670,84.68,1111122 
COMPS,ioos:station:USF.COMPS:ARP:1,2015-10-01T19:12:00Z,28.4330,-82.6670,83.5,1111122 
COMPS,ioos:station:USF.COMPS:ARP:1,2015-10-01T19:18:00Z,28.4330,-82.6670,83.19,1111122 
COMPS,ioos:station:USF.COMPS:ARP:1,2015-10-01T19:24:00Z,28.4330,-82.6670,83.56,1111122 
COMPS,ioos:station:USF.COMPS:ARP:1,2015-10-01T19:30:00Z,28.4330,-82.6670,83.24,1111122 
COMPS,ioos:station:USF.COMPS:ARP:1,2015-10-01T19:36:00Z,28.4330,-82.6670,83.71,1111122 
COMPS,ioos:station:USF.COMPS:ARP:1,2015-10-01T19:42:00Z,28.4330,-82.6670,83.72,1111122 
COMPS,ioos:station:USF.COMPS:ARP:1,2015-10-01T19:48:00Z,28.4330,-82.6670,83.88,1111122 
COMPS,ioos:station:USF.COMPS:ARP:1,2015-10-01T19:54:00Z,28.4330,-82.6670,84.48,1111122 
COMPS,ioos:station:USF.COMPS:ARP:1,2015-10-01T20:00:00Z,28.4330,-82.6670,84.4,1111122 
COMPS,ioos:station:USF.COMPS:ARP:1,2015-10-01T20:06:00Z,28.4330,-82.6670,84.27,1111122 
COMPS,ioos:station:USF.COMPS:ARP:1,2015-10-01T20:12:00Z,28.4330,-82.6670,83.39,1111122 
COMPS,ioos:station:USF.COMPS:ARP:1,2015-10-01T20:18:00Z,28.4330,-82.6670,81.96,1111122 
COMPS,ioos:station:USF.COMPS:ARP:1,2015-10-01T20:24:00Z,28.4330,-82.6670,82.29,1111122 
COMPS,ioos:station:USF.COMPS:ARP:1,2015-10-01T20:30:00Z,28.4330,-82.6670,82.08,1111122 
COMPS,ioos:station:USF.COMPS:ARP:1,2015-10-01T20:36:00Z,28.4330,-82.6670,82.23,1111122 
COMPS,ioos:station:USF.COMPS:ARP:1,2015-10-01T20:42:00Z,28.4330,-82.6670,82.55,1111122 
COMPS,ioos:station:USF.COMPS:ARP:1,2015-10-01T20:48:00Z,28.4330,-82.6670,82.44,1111122 
COMPS,ioos:station:USF.COMPS:ARP:1,2015-10-01T20:54:00Z,28.4330,-82.6670,82.76,1111122 
COMPS,ioos:station:USF.COMPS:ARP:1,2015-10-01T21:00:00Z,28.4330,-82.6670,83.38,1111122 
COMPS,ioos:station:USF.COMPS:ARP:1,2015-10-01T21:06:00Z,28.4330,-82.6670,83.35,1111122 
COMPS,ioos:station:USF.COMPS:ARP:1,2015-10-01T21:12:00Z,28.4330,-82.6670,82.32,1111122 
COMPS,ioos:station:USF.COMPS:ARP:1,2015-10-01T21:18:00Z,28.4330,-82.6670,82.04,1111122 
COMPS,ioos:station:USF.COMPS:ARP:1,2015-10-01T21:24:00Z,28.4330,-82.6670,82.67,1111122 
COMPS,ioos:station:USF.COMPS:ARP:1,2015-10-01T21:30:00Z,28.4330,-82.6670,83.77,1111122 
COMPS,ioos:station:USF.COMPS:ARP:1,2015-10-01T21:36:00Z,28.4330,-82.6670,83.06,1111122 
COMPS,ioos:station:USF.COMPS:ARP:1,2015-10-01T21:42:00Z,28.4330,-82.6670,83.52,1111122 
COMPS,ioos:station:USF.COMPS:ARP:1,2015-10-01T21:48:00Z,28.4330,-82.6670,83.21,1111122 
COMPS,ioos:station:USF.COMPS:ARP:1,2015-10-01T21:54:00Z,28.4330,-82.6670,82.28,1111122 
COMPS,ioos:station:USF.COMPS:ARP:1,2015-10-01T22:00:00Z,28.4330,-82.6670,81.94,1111122 
COMPS,ioos:station:USF.COMPS:ARP:1,2015-10-01T22:06:00Z,28.4330,-82.6670,82.68,1111122 
COMPS,ioos:station:USF.COMPS:ARP:1,2015-10-01T22:12:00Z,28.4330,-82.6670,82.94,1111122 
COMPS,ioos:station:USF.COMPS:ARP:1,2015-10-01T22:18:00Z,28.4330,-82.6670,82.49,1111122 
COMPS,ioos:station:USF.COMPS:ARP:1,2015-10-01T22:24:00Z,28.4330,-82.6670,82.86,1111122 
COMPS,ioos:station:USF.COMPS:ARP:1,2015-10-01T22:30:00Z,28.4330,-82.6670,83.53,1111122 
COMPS,ioos:station:USF.COMPS:ARP:1,2015-10-01T22:36:00Z,28.4330,-82.6670,82.74,1111122 
COMPS,ioos:station:USF.COMPS:ARP:1,2015-10-01T22:42:00Z,28.4330,-82.6670,81.78,1111122 
COMPS,ioos:station:USF.COMPS:ARP:1,2015-10-01T22:48:00Z,28.4330,-82.6670,81.97,1111122 
COMPS,ioos:station:USF.COMPS:ARP:1,2015-10-01T22:54:00Z,28.4330,-82.6670,81.72,1111122 
COMPS,ioos:station:USF.COMPS:ARP:1,2015-10-01T23:00:00Z,28.4330,-82.6670,83.45,1111122 
COMPS,ioos:station:USF.COMPS:ARP:1,2015-10-01T23:06:00Z,28.4330,-82.6670,83.48,1111122 
COMPS,ioos:station:USF.COMPS:ARP:1,2015-10-01T23:12:00Z,28.4330,-82.6670,83.91,1111122 
COMPS,ioos:station:USF.COMPS:ARP:1,2015-10-01T23:18:00Z,28.4330,-82.6670,85.21,1111122 
COMPS,ioos:station:USF.COMPS:ARP:1,2015-10-01T23:24:00Z,28.4330,-82.6670,85.58,1111122 
COMPS,ioos:station:USF.COMPS:ARP:1,2015-10-01T23:30:00Z,28.4330,-82.6670,86.4,1111122 
COMPS,ioos:station:USF.COMPS:ARP:1,2015-10-01T23:36:00Z,28.4330,-82.6670,86.82,1111122 
COMPS,ioos:station:USF.COMPS:ARP:1,2015-10-01T23:42:00Z,28.4330,-82.6670,86.85,1111122 
COMPS,ioos:station:USF.COMPS:ARP:1,2015-10-01T23:48:00Z,28.4330,-82.6670,86.64,1111122 
COMPS,ioos:station:USF.COMPS:ARP:1,2015-10-01T23:54:00Z,28.4330,-82.6670,86.07,1111122 
COMPS,ioos:station:USF.COMPS:ARP:1,2015-10-02T00:00:00Z,28.4330,-82.6670,85.96,1111122 
COMPS,ioos:station:USF.COMPS:ARP:1,2015-10-02T00:06:00Z,28.4330,-82.6670,85.86,1111122 
COMPS,ioos:station:USF.COMPS:ARP:1,2015-10-02T00:12:00Z,28.4330,-82.6670,85.51,1111122 
COMPS,ioos:station:USF.COMPS:ARP:1,2015-10-02T00:18:00Z,28.4330,-82.6670,85.47,1111122 
COMPS,ioos:station:USF.COMPS:ARP:1,2015-10-02T00:24:00Z,28.4330,-82.6670,85.98,1111122 
COMPS,ioos:station:USF.COMPS:ARP:1,2015-10-02T00:30:00Z,28.4330,-82.6670,86.0,1111122 
COMPS,ioos:station:USF.COMPS:ARP:1,2015-10-02T00:36:00Z,28.4330,-82.6670,86.25,1111122 
COMPS,ioos:station:USF.COMPS:ARP:1,2015-10-02T00:42:00Z,28.4330,-82.6670,86.08,1111122 
COMPS,ioos:station:USF.COMPS:ARP:1,2015-10-02T00:48:00Z,28.4330,-82.6670,86.2,1111122 
COMPS,ioos:station:USF.COMPS:ARP:1,2015-10-02T00:54:00Z,28.4330,-82.6670,86.19,1111122 
COMPS,ioos:station:USF.COMPS:ARP:1,2015-10-02T01:00:00Z,28.4330,-82.6670,86.55,1111122 
COMPS,ioos:station:USF.COMPS:ARP:1,2015-10-02T01:06:00Z,28.4330,-82.6670,86.49,1111122 
COMPS,ioos:station:USF.COMPS:ARP:1,2015-10-02T01:12:00Z,28.4330,-82.6670,86.65,1111122 
COMPS,ioos:station:USF.COMPS:ARP:1,2015-10-02T01:18:00Z,28.4330,-82.6670,86.98,1111122 
COMPS,ioos:station:USF.COMPS:ARP:1,2015-10-02T01:24:00Z,28.4330,-82.6670,87.04,1111122 
COMPS,ioos:station:USF.COMPS:ARP:1,2015-10-02T01:30:00Z,28.4330,-82.6670,86.55,1111122 
COMPS,ioos:station:USF.COMPS:ARP:1,2015-10-02T01:36:00Z,28.4330,-82.6670,84.01,1111122 
COMPS,ioos:station:USF.COMPS:ARP:1,2015-10-02T01:42:00Z,28.4330,-82.6670,82.24,1111122 
COMPS,ioos:station:USF.COMPS:ARP:1,2015-10-02T01:48:00Z,28.4330,-82.6670,83.56,1111122 
COMPS,ioos:station:USF.COMPS:ARP:1,2015-10-02T01:54:00Z,28.4330,-82.6670,85.55,1111122 
COMPS,ioos:station:USF.COMPS:ARP:1,2015-10-02T02:00:00Z,28.4330,-82.6670,89.18,1111122 
COMPS,ioos:station:USF.COMPS:ARP:1,2015-10-02T02:06:00Z,28.4330,-82.6670,90.79,1111122 
COMPS,ioos:station:USF.COMPS:ARP:1,2015-10-02T02:12:00Z,28.4330,-82.6670,90.68,1111122 
COMPS,ioos:station:USF.COMPS:ARP:1,2015-10-02T02:18:00Z,28.4330,-82.6670,89.62,1111122 
COMPS,ioos:station:USF.COMPS:ARP:1,2015-10-02T02:24:00Z,28.4330,-82.6670,88.69,1111122 
COMPS,ioos:station:USF.COMPS:ARP:1,2015-10-02T02:30:00Z,28.4330,-82.6670,88.04,1111122 
COMPS,ioos:station:USF.COMPS:ARP:1,2015-10-02T02:36:00Z,28.4330,-82.6670,87.56,1111122 
COMPS,ioos:station:USF.COMPS:ARP:1,2015-10-02T02:42:00Z,28.4330,-82.6670,87.53,1111122 
COMPS,ioos:station:USF.COMPS:ARP:1,2015-10-02T02:48:00Z,28.4330,-82.6670,87.26,1111122 
COMPS,ioos:station:USF.COMPS:ARP:1,2015-10-02T02:54:00Z,28.4330,-82.6670,87.49,1111122 
COMPS,ioos:station:USF.COMPS:ARP:1,2015-10-02T03:00:00Z,28.4330,-82.6670,88.27,1111122 
COMPS,ioos:station:USF.COMPS:ARP:1,2015-10-02T03:06:00Z,28.4330,-82.6670,88.88,1111122 